Volver al catálogo

SIT-2086

ActivoMilitarSSO
NORAD 61764·PAYLOAD·🇷🇺 Russia

Lanzado Nov 4, 2024 desde Vostochny Cosmodrome

Loading…

Próximos Pases (próximas 24 horas)

TLE

ActualizadoSource: Space-Track

Época: Sep 14, 2026, 10:41 UTC

1 61764U 24199AF  26257.44515539  .00039264  00000-0  49349-3 0  9993
2 61764  97.2754 135.5668 0003228 303.1993  56.8954 15.59586597148311

Sigue SIT-2086 en tiempo real con AllMySat

Download on the App Store